{"data":{"norad_id":56786,"intl_designator":"2023-078V","name":"STARLINK-6341","alt_names":[],"object_type":"PAYLOAD","status":"ACTIVE","operator":null,"country":"US","launch_date":"2023-05-31","launch_site_code":"AFWTR","launch_vehicle":null,"mission":null,"orbit_class":"UNKNOWN","rcs_meters":null,"size_class":null,"mass_kg":null,"dimensions":null,"purposes":["comms"],"wikipedia_slug":null,"has_3d_model":false,"image_url":null,"decayed_at":null,"tle_current":{"epoch":"2026-05-25T04:57:32.893344Z","epoch_age_seconds":53722,"freshness":"FRESH","line1":"1 56786U 23078V   26145.20663071 -.00000269  00000+0 -14777-4 0  9993","line2":"2 56786  69.9989 131.5861 0003626 266.6822  93.3922 14.98331232164632","mean_motion":14.98331232,"eccentricity":0.0003626,"inclination_deg":69.9989,"raan_deg":131.5861,"arg_perigee_deg":266.6822,"mean_anomaly_deg":93.3922,"bstar":-1.4777e-5,"rev_number":16463,"period_min":96.106920101896,"perigee_km":569.53194252785,"apogee_km":574.57221964946,"semimajor_km":6950.1890810887,"source":"CELESTRAK","updated_at":"2026-05-25T13:38:18.155482Z"}}}